www.pogodaiklimat.ru

Погода и климат >> Архив погоды >> Австралия >> Западная Австралия >> Брум


ПОГОДА в Бруме

  • Прогноз погоды в Бруме
  • Монитор погоды в Бруме

АРХИВ ПОГОДЫ в Бруме

Время (UTC), дата Ветер
(напр.,м/с)
 
Видим.   Явления Облачность Т
(С)
Тd
(С)
f
(%)
Тe
(С)
Тes
(С)
Комфортность P
(гПа)
Po
(гПа)
Тmin
(С)
Tmax
(С)
R
(мм)
R24
(мм)
S
(см)
01 20.05 ЮВ 3 н/о н/о +29.3 +14.0 39 +31 +31 жарко 1015.9 1014.9 +22.2
03 20.05 В 6 н/о н/о +34.6 +16.5 34 +37 +37 очень
душно
1014.7 1013.7
04 20.05 ЮВ 5 н/о н/о +34.3 +16.9 36 +38 +38 очень
душно
1013.8 1012.8
06 20.05 Ю 4 н/о н/о +35.7 +14.4 28 +37 +37 душно 1012.0 1011.0
07 20.05 Ю 4 н/о н/о +36.1 +11.8 23 +36 +36 очень
жарко
1011.9 1010.9
09 20.05 З 5 н/о н/о +28.3 +22.9 73 +38 +38 очень
душно
1013.4 1012.4
10 20.05 З 4 н/о 10/0
[]
+27.4 +23.3 78 +37 +37 очень
душно
1014.1 1013.1
12 20.05 З 3 н/о н/о +26.5 +22.2 77 +34 +34 очень
душно
1015.2 1014.2
13 20.05 С 1 н/о 8/0
[]
+25.2 +22.1 83 +33 +33 очень
душно
1015.3 1014.3 +36.6
15 20.05 З 2 н/о н/о +25.9 +19.7 69 +32 +32 очень
душно
1014.8 1013.8
16 20.05 З 2 н/о н/о +25.3 +20.7 76 +32 +32 очень
душно
1014.5 1013.5
18 20.05 С 2 н/о н/о +21.6 +19.6 88 +27 +27 душно 1014.1 1013.1
19 20.05 штиль 0 н/о н/о +21.2 +19.8 92 +26 +26 душно 1013.7 1012.7
21 20.05 ЮВ 3 н/о н/о +22.4 +20.9 91 +29 +29 очень
душно
1014.1 1013.1
22 20.05 ЮВ 3 н/о 4/0
[]
+23.3 +18.7 75 +29 +29 душно 1014.8 1013.8
00 21.05 ЮВ 4 н/о н/о +25.4 +14.3 50 +28 +28 жарко 1015.6 1014.6
01 21.05 ЮВ 5 н/о 1/0
[]
+28.7 +13.1 38 +30 +34 жарко 1015.5 1014.5 +20.9
03 21.05 В 7 н/о н/о +35.5 +14.7 29 +37 +37 душно 1014.3 1013.3
04 21.05 ЮВ 7 н/о 1/0 2000 м
[]
+35.2 +15.9 32 +37 +41 очень
душно
1013.2 1012.2
06 21.05 ЮВ 5 н/о н/о +34.4 +14.5 30 +36 +36 душно 1011.9 1010.9
07 21.05 ЮВ 3 н/о 1/0
[]
+34.1 +15.4 33 +36 +40 душно 1011.9 1010.9
09 21.05 С 3 н/о н/о +31.1 +19.5 50 +37 +37 очень
душно
1012.7 1011.7
10 21.05 СЗ 4 н/о н/о +27.9 +24.3 81 +39 +39 очень
душно
1013.4 1012.4
12 21.05 З 3 н/о н/о +26.6 +24.6 89 +38 +38 очень
душно
1014.7 1013.7
13 21.05 СЗ 2 н/о 6/0
[]
+26.7 +23.5 83 +36 +36 очень
душно
1015.0 1014.0 +36.6
15 21.05 штиль 0 н/о н/о +24.7 +23.1 91 +33 +33 очень
душно
1015.1 1014.1
16 21.05 штиль 0 н/о н/о +23.4 +22.2 93 +32 +32 очень
душно
1014.9 1013.9
18 21.05 штиль 0 н/о н/о +24.4 +22.8 91 +32 +32 очень
душно
1014.5 1013.5
19 21.05 штиль 0 н/о 8/0
[]
+24.0 +20.6 81 +30 +30 очень
душно
1014.2 1013.2
21 21.05 ЮВ 2 н/о н/о +25.0 +16.3 58 +28 +28 жарко 1014.3 1013.3
22 21.05 ЮВ 3 н/о н/о +24.8 +15.7 57 +28 +28 жарко 1014.9 1013.9
00 22.05 ЮВ 2 н/о н/о +27.6 +15.3 47 +30 +30 жарко 1016.0 1015.0
01 22.05 В 5 н/о н/о +31.2 +14.4 36 +33 +33 жарко 1016.1 1015.1 +22.5
03 22.05 СВ 7 н/о н/о +35.8 +14.5 28 +37 +37 душно 1015.3 1014.3
04 22.05 СВ 6 н/о н/о +36.6 +12.6 24 +37 +37 очень
жарко
1014.7 1013.7
06 22.05 СЗ 5 н/о н/о +33.5 +20.1 45 +40 +40 очень
душно
1013.1 1012.1
07 22.05 З 5 н/о 10/0
[]
+31.8 +18.7 46 +37 +38 очень
душно
1013.2 1012.2
09 22.05 СЗ 3 н/о н/о +30.1 +18.8 51 +35 +35 очень
душно
1013.5 1012.5
10 22.05 З 2 н/о н/о +28.1 +20.3 63 +35 +35 очень
душно
1014.1 1013.1
12 22.05 штиль 0 н/о н/о +23.1 +19.2 79 +29 +29 очень
душно
1015.0 1014.0
13 22.05 СВ 1 н/о н/о +22.3 +19.6 85 +28 +28 душно 1015.1 1014.1 +38.3
15 22.05 Ю 2 н/о н/о +21.1 +19.5 91 +26 +26 душно 1015.7 1014.7
16 22.05 СВ 1 н/о н/о +19.7 +18.1 90 +24 +24 комфорт 1015.6 1014.6
18 22.05 штиль 0 н/о н/о +19.9 +18.5 92 +23 +23 комфорт 1015.3 1014.3
19 22.05 штиль 0 н/о н/о +18.3 +17.1 93 +19 +19 1015.4 1014.4
21 22.05 В 3 н/о н/о +20.1 +12.2 60 +22 +22 комфорт 1016.1 1015.1
22 22.05 В 4 н/о н/о +20.2 +10.4 53 +22 +22 комфорт 1016.8 1015.8
00 23.05 В 5 н/о н/о +26.0 +8.1 32 +26 +26 жарко 1018.0 1017.0
01 23.05 В 6 н/о н/о +29.6 +7.0 24 +28 +28 жарко 1018.3 1017.3 +18.0
03 23.05 В 6 н/о н/о +33.5 +6.0 18 +31 +31 жарко 1017.2 1016.2
04 23.05 В 6 н/о н/о +34.6 +5.3 16 +32 +32 жарко 1016.1 1015.1
06 23.05 ЮВ 5 н/о н/о +33.5 +12.1 27 +34 +34 очень
жарко
1014.4 1013.4
07 23.05 ЮВ 6 н/о н/о +34.4 +8.5 20 +33 +33 жарко 1013.9 1012.9
09 23.05 ЮВ 5 н/о н/о +30.5 +14.6 38 +33 +33 душно 1014.3 1013.3
10 23.05 ЮВ 4 н/о н/о +28.3 +14.5 43 +31 +31 душно 1015.0 1014.0
12 23.05 ЮВ 2 н/о н/о +26.7 +11.2 38 +28 +28 жарко 1016.4 1015.4
13 23.05 ЮВ 2 н/о н/о +23.6 +12.6 50 +26 +26 жарко 1016.8 1015.8 +35.8
15 23.05 ЮВ 4 н/о н/о +24.0 +12.9 50 +26 +26 жарко 1016.7 1015.7
16 23.05 ЮВ 4 н/о н/о +24.7 +12.1 45 +26 +26 жарко 1016.4 1015.4
18 23.05 В 4 н/о н/о +22.1 +6.6 37 +23 +23 комфорт 1015.8 1014.8
19 23.05 В 4 н/о н/о +21.0 +6.3 38 +22 +22 комфорт 1015.6 1014.6
21 23.05 В 2 н/о н/о +19.0 +7.4 47 +20 +20 1015.5 1014.5
22 23.05 СВ 3 н/о н/о +16.7 +8.2 57 +17 +17 1016.3 1015.3
00 24.05 В 5 н/о н/о +25.7 +4.9 26 +25 +25 комфорт 1017.2 1016.2
01 24.05 ЮВ 4 н/о н/о +28.1 +8.5 29 +28 +28 жарко 1017.2 1016.2 +16.4
03 24.05 ЮВ 7 н/о н/о +32.3 +6.6 20 +30 +30 жарко 1015.6 1014.6
04 24.05 ЮВ 6 н/о 1/0
[]
+31.6 +5.2 19 +30 +35 жарко 1014.6 1013.6
06 24.05 ЮВ 5 н/о н/о +33.7 +6.8 19 +32 +32 жарко 1012.8 1011.8
07 24.05 ЮВ 5 н/о 1/0
[]
+33.6 +4.3 16 +31 +34 жарко 1012.7 1011.7
09 24.05 В 3 н/о н/о +30.6 +9.1 26 +30 +30 жарко 1012.9 1011.9
10 24.05 Ю 2 н/о н/о +28.1 +14.1 42 +30 +30 жарко 1013.7 1012.7
12 24.05 ЮЗ 4 н/о н/о +26.7 +10.4 36 +27 +27 жарко 1015.6 1014.6
13 24.05 ЮВ 3 н/о н/о +26.5 +9.1 33 +27 +27 жарко 1015.8 1014.8 +34.3
15 24.05 штиль 0 н/о н/о +21.2 +7.1 40 +22 +22 комфорт 1015.8 1014.8
16 24.05 штиль 0 н/о н/о +19.1 +7.2 46 +20 +20 1015.5 1014.5
18 24.05 штиль 0 н/о н/о +16.8 +9.5 62 +17 +17 1014.5 1013.5
19 24.05 штиль 0 н/о н/о +17.9 +8.1 53 +18 +18 1014.1 1013.1
21 24.05 В 2 н/о н/о +16.6 +8.3 58 +17 +17 1014.3 1013.3
22 24.05 В 2 н/о н/о +15.9 +8.6 62 +16 +16 1014.6 1013.6
00 25.05 В 2 н/о н/о +24.3 +6.4 32 +24 +24 комфорт 1016.0 1015.0
01 25.05 В 5 н/о н/о +28.9 +3.8 20 +27 +27 жарко 1016.0 1015.0 +15.4
03 25.05 В 6 н/о н/о +32.8 +4.3 17 +30 +30 жарко 1014.7 1013.7
04 25.05 ЮВ 6 н/о н/о +32.6 +4.9 18 +30 +30 жарко 1013.7 1012.7
06 25.05 Ю 4 н/о н/о +33.1 +2.4 14 +30 +30 жарко 1012.1 1011.1
07 25.05 Ю 4 н/о н/о +33.7 +2.6 14 +31 +31 жарко 1011.9 1010.9
09 25.05 Ю 2 н/о н/о +31.8 +6.0 20 +30 +30 жарко 1012.5 1011.5
10 25.05 Ю 2 н/о н/о +27.1 +8.5 31 +27 +27 жарко 1012.9 1011.9
12 25.05 Ю 5 н/о н/о +26.5 +16.6 55 +30 +30 душно 1014.5 1013.5
13 25.05 Ю 4 н/о н/о +25.7 +17.4 60 +30 +30 душно 1014.8 1013.8 +34.1
15 25.05 ЮВ 2 н/о н/о +23.4 +11.0 46 +26 +26 жарко 1014.5 1013.5
16 25.05 ЮВ 3 н/о н/о +21.4 +6.9 39 +22 +22 комфорт 1014.3 1013.3
18 25.05 В 1 н/о н/о +18.3 +9.8 58 +20 +20 1013.5 1012.5
19 25.05 штиль 0 н/о н/о +17.7 +9.7 59 +18 +18 1013.6 1012.6
21 25.05 В 2 н/о н/о +17.5 +6.6 49 +18 +18 1013.9 1012.9
22 25.05 В 2 н/о н/о +17.2 +7.4 52 +18 +18 1014.1 1013.1
00 26.05 ЮВ 2 н/о н/о +23.9 +5.8 31 +24 +24 комфорт 1015.0 1014.0
01 26.05 В 5 н/о н/о +28.5 +4.7 22 +27 +27 жарко 1015.3 1014.3 +15.7
03 26.05 В 6 н/о н/о +33.2 +4.8 17 +31 +31 жарко 1013.9 1012.9
04 26.05 В 5 н/о н/о +33.9 +3.1 14 +31 +31 жарко 1013.1 1012.1
06 26.05 В 4 н/о н/о +34.7 +3.8 14 +32 +32 жарко 1011.3 1010.3
07 26.05 В 3 н/о н/о +34.0 +5.5 17 +32 +32 жарко 1011.2 1010.2
09 26.05 В 3 н/о н/о +30.2 +9.6 28 +30 +30 жарко 1011.8 1010.8
10 26.05 В 2 н/о н/о +26.5 +11.4 39 +28 +28 жарко 1012.7 1011.7
12 26.05 З 2 н/о н/о +21.8 +15.8 69 +25 +25 комфорт 1014.4 1013.4
13 26.05 В 2 н/о н/о +20.2 +16.6 80 +24 +24 комфорт 1014.7 1013.7 +35.6
15 26.05 СЗ 2 н/о н/о +19.5 +17.4 88 +23 +23 комфорт 1014.6 1013.6
16 26.05 С 2 н/о н/о +18.2 +16.7 91 +19 +19 1014.3 1013.3
18 26.05 СВ 2 н/о н/о +19.2 +13.6 70 +21 +21 комфорт 1013.8 1012.8
19 26.05 С 1 н/о н/о +18.2 +11.4 64 +20 +20 1013.7 1012.7
21 26.05 штиль 0 н/о н/о +16.2 +11.4 73 +16 +16 1014.1 1013.1
22 26.05 В 2 н/о н/о +17.8 +6.5 47 +19 +19 1014.4 1013.4
00 27.05 В 4 н/о н/о +24.3 +4.0 27 +24 +24 комфорт 1015.3 1014.3
01 27.05 В 7 н/о н/о +28.7 +1.5 17 +26 +26 жарко 1015.5 1014.5 +16.2

 

Местоположение метеостанции Брум (Западная Австралия, Австралия): широта -17.95 долгота 122.23 высота над уровнем моря 9 м.

В архиве по умолчанию представлена погода в Бруме за последнюю неделю. Архивные данные за месяц целиком и за предыдущие месяцы, начиная с января 2011 года, Вы можете получить, выбрав интересующий диапазон дат из раскрывающегося списка и нажав кнопку "Ввод!".


*Определитесь, кто Вы:
робот инопланетянин человек

Внимание! Время в таблицах - всемирное. Для получения местного времени необходимо прибавить поправку, которая равна 8 ч.

Смотрите также архив погоды в соседних городах и на ближайших метеорологических станциях:

Погода в Робак Запад (Западная Австралия, Австралия) (11 км)
Погода в Дерби (Северная территория, Австралия) (165 км)
Погода на Базе ВВС Curtin (Западная Австралия, Австралия) (173 км)
Погода в Мандоре (Западная Австралия, Австралия) (246 км)
Погода на Острове Адель (Западная Австралия, Австралия) (289 км)
Погода в Роули Шоалс (Западная Австралия, Австралия) (351 км)
Погода в Фицрой-Кроссинге (Западная Австралия, Австралия) (353 км)
Погода в Телфере (Западная Австралия, Австралия) (418 км)
Погода в Марбл-баре (Западная Австралия, Австралия) (443 км)
Погода на Острове Брауз (Западная Австралия, Австралия) (450 км)

Пояснения к столбцам:

Ветер - указаны скорость ветра в м/с - средняя за 10 мин, порывы в срок и между сроками (в фигурных скобках) и направление, откуда дует ветер: С - северный, СВ - северо-восточный, В - восточный, ЮВ - юго-восточный, Ю - южный, ЮЗ - юго-западный, З - западный, СЗ - северо-западный.
Видимость - горизонтальная дальность видимости в метрах или километрах. При видимости от 1 до 10 км при отсутствии осадков обычно наблюдается дымка, при ухудшении видимости до 1 км и менее - туман. В сухую погоду видимость может ухудшаться дымом, пылью или мглою.
Явления - указаны атмосферные явления, наблюдавшиеся в срок или в последний час перед сроком; фигурными скобками обозначены явления, наблюдавшиеся между сроками (за 1-3 часа до срока); квадратными скобками обозначены град или гололедные отложения с указанием их диаметра в мм.
Облачность - указаны через наклонную черту общая и нижняя облачность в баллах и высота нижней границы облаков в метрах; квадратными скобками обозначены формы облаков: Ci - перистые, Cs - перисто-слоистые, Cc - перисто-кучевые, Ac - высококучевые, As - высокослоистые, Sc - слоисто-кучевые, Ns - слоисто-дождевые, Cu - кучевые, Cb - кучево-дождевые. Подробнее классификацию облаков см. в Атласе облаков (PDF).
T - Температура воздуха - температура, измеренная на высоте 2 м над землей.
Td - Температура точки росы - температура, при понижении до которой содержащийся в воздухе водяной пар достигнет насыщения.
f - Относительная влажность воздуха - влажноcть воздуха, измеренная на высоте 2 м над землей.
Te - Эффективная температура - температура, которую ощущает одетый по сезону человек в тени. Характеристика душности погоды. При расчете учитывается влияние влажности воздуха и скорости ветра на теплоощущения человека.
Tes - Эффективная температура на солнце - температура, которую ощущает человек, с поправкой на солнечный нагрев. Характеристика знойности погоды. Зависит от высоты солнца над горизонтом, облачности и скорости ветра. Ночью, в пасмурную погоду, а также при ветре 12 м/с и более поправка равна нулю.
P - Атмосферное давление - приведенное к уровню моря атмосферное давление.
Po - Атмосферное давление - измеренное на уровне метеостанции атмосферное давление.
Tmin - Минимальная температура - минимум температуры воздуха на высоте 2 м над землей.
Tmax - Максимальная температура - максимум температуры воздуха на высоте 2 м над землей.
R - Количество осадков - Количество выпавших осадков за период времени, мм. При наведении курсора мыши на число - период времени, за который выпало указанное количество осадков.
R24 - Количество осадков - Количество выпавших осадков за 24 часа, мм.
S - Снежный покров - Высота снежного покрова, см. При наведении курсора мыши на число - состояние снежного покрова и степень покрытия местности в баллах.